Time+07,TemperatureF,Dew PointF,Humidity,Sea Level PressureIn,VisibilityMPH,Wind Direction,Wind SpeedMPH,Gust SpeedMPH,PrecipitationIn,Events,Conditions,WindDirDegrees,DateUTC
12:00 AM,77.0,73.4,89,29.83,5.6,NE,8.1,-,N/A,,Scattered Clouds,40,2013-11-16 17:00:00
12:30 AM,77.0,73.4,89,29.83,5.6,NE,6.9,-,N/A,,Scattered Clouds,50,2013-11-16 17:30:00
1:00 AM,77.0,73.4,89,29.83,5.6,NNE,6.9,-,N/A,,Scattered Clouds,30,2013-11-16 18:00:00
7:00 AM,77.0,73.4,89,29.89,6.2,NNW,4.6,-,N/A,,Scattered Clouds,330,2013-11-17 00:00:00
7:30 AM,77.0,73.4,89,29.89,6.2,NNW,4.6,-,N/A,,Scattered Clouds,330,2013-11-17 00:30:00
8:00 AM,77.0,73.4,89,29.92,6.2,NW,5.8,-,N/A,,Scattered Clouds,320,2013-11-17 01:00:00
8:30 AM,78.8,73.4,83,29.92,6.2,Variable,3.5,-,N/A,,Scattered Clouds,0,2013-11-17 01:30:00
9:00 AM,78.8,73.4,83,29.95,6.2,Variable,3.5,-,N/A,,Scattered Clouds,0,2013-11-17 02:00:00
9:30 AM,78.8,73.4,83,29.95,6.2,Variable,3.5,-,N/A,,Scattered Clouds,0,2013-11-17 02:30:00
10:00 AM,80.6,73.4,79,29.95,6.2,Variable,3.5,-,N/A,,Scattered Clouds,0,2013-11-17 03:00:00
10:30 AM,82.4,73.4,74,29.95,6.2,Variable,2.3,-,N/A,,Scattered Clouds,0,2013-11-17 03:30:00
11:00 AM,82.4,73.4,74,29.92,6.2,North,4.6,-,N/A,,Scattered Clouds,10,2013-11-17 04:00:00
11:30 AM,82.4,73.4,74,29.92,5.6,Variable,3.5,-,N/A,Rain,Light Rain,0,2013-11-17 04:30:00
12:00 PM,80.6,73.4,79,29.92,5.6,NNE,6.9,-,N/A,Rain,Light Rain,20,2013-11-17 05:00:00
12:30 PM,77.0,75.2,94,29.89,5.6,ESE,3.5,-,N/A,Rain,Light Rain,110,2013-11-17 05:30:00
1:00 PM,78.8,75.2,89,29.89,5.6,ESE,4.6,-,N/A,Rain,Light Rain,110,2013-11-17 06:00:00
1:30 PM,78.8,75.2,89,29.86,5.6,East,5.8,-,N/A,Rain,Light Rain,90,2013-11-17 06:30:00
2:00 PM,78.8,75.2,89,29.86,5.6,Variable,3.5,-,N/A,Rain,Light Rain,0,2013-11-17 07:00:00
2:30 PM,80.6,75.2,84,29.83,5.6,NE,4.6,-,N/A,Rain,Light Rain,50,2013-11-17 07:30:00
3:30 PM,80.6,75.2,84,29.83,5.6,North,4.6,-,N/A,Rain,Light Rain,10,2013-11-17 08:30:00
4:00 PM,80.6,73.4,79,29.83,5.6,NNE,6.9,-,N/A,Rain,Light Rain,30,2013-11-17 09:00:00
4:30 PM,80.6,73.4,79,29.83,6.2,NNE,8.1,-,N/A,,Scattered Clouds,30,2013-11-17 09:30:00
5:00 PM,80.6,75.2,84,29.83,6.2,NNE,6.9,-,N/A,,Scattered Clouds,30,2013-11-17 10:00:00
5:30 PM,80.6,75.2,84,29.86,6.2,NNE,4.6,-,N/A,,Scattered Clouds,30,2013-11-17 10:30:00
6:00 PM,80.6,75.2,84,29.86,6.2,NNE,3.5,-,N/A,,Scattered Clouds,30,2013-11-17 11:00:00
6:30 PM,80.6,75.2,84,29.86,6.2,NNE,3.5,-,N/A,,Mostly Cloudy,30,2013-11-17 11:30:00
7:00 PM,80.6,75.2,84,29.86,6.2,NE,3.5,-,N/A,,Mostly Cloudy,50,2013-11-17 12:00:00
7:30 PM,78.8,75.2,89,29.89,6.2,NNE,3.5,-,N/A,,Scattered Clouds,30,2013-11-17 12:30:00
8:00 PM,80.6,75.2,84,29.89,6.2,NE,3.5,-,N/A,,Scattered Clouds,40,2013-11-17 13:00:00
8:30 PM,78.8,75.2,89,29.89,6.2,NE,3.5,-,N/A,,Scattered Clouds,40,2013-11-17 13:30:00
9:00 PM,78.8,75.2,89,29.89,6.2,NNE,3.5,-,N/A,,Scattered Clouds,30,2013-11-17 14:00:00
9:30 PM,78.8,75.2,89,29.89,6.2,North,3.5,-,N/A,,Scattered Clouds,10,2013-11-17 14:30:00
10:00 PM,78.8,75.2,89,29.89,6.2,NNE,5.8,-,N/A,,Scattered Clouds,30,2013-11-17 15:00:00
10:30 PM,77.0,73.4,89,29.89,6.2,NE,5.8,-,N/A,,Scattered Clouds,40,2013-11-17 15:30:00
11:00 PM,77.0,73.4,89,29.89,6.2,North,3.5,-,N/A,,Scattered Clouds,10,2013-11-17 16:00:00
11:30 PM,77.0,73.4,89,29.89,-9999.0,NNE,3.5,-,N/A,,Clear,20,2013-11-17 16:30:00